SITRO-AIS 6 (CHIRKIN)

Last updated on Sun Dec 14 2025 00:03:50 GMT+0000 (Coordinated Universal Time)

1 57192U 23091AC 25347.28918487 .00011655 00000+0 49735-3 0 9995 2 57192 97.5351 44.6716 0013793 44.9758 315.2593 15.22982201135968
UTC large
Height (km)
Speed (km/s)
/
Latitude / Longitude
Inclination (degrees)
Orbital Period (minutes)
Azimuth
Elevation
Range (km)
Doppler Factor

Next 0 passes for location: London (51.5072 / 0.1276)

Sorry there are no passes over London.